Terug naar catalogus

CZ-6A DEB

ActiefPO
NORAD 61424·DEBRIS·🇨🇳 China

Gelanceerd Aug 6, 2024 vanaf Taiyuan Satellite Launch Center

Loading…

Volgende Passages (komende 24 uur)

TLE

VersSource: Space-Track

Epoch: Sep 14, 2026, 10:36 UTC

1 61424U 24140YR  26257.44212357  .00000808  00000-0  21233-3 0  9998
2 61424  89.0010 261.3073 0071126 344.2865  15.6131 14.46772770108807

Volg CZ-6A DEB in realtime met AllMySat

Download on the App Store